Location: Eenumerhoogte
(53.3420°N, 6.7843°E)
Time: 08:07:09
(UTC+00:00)

Daily predictions for brighter satellites

Satellite Brightness Start Highest point End
(mag) Time Altitude Azimuth Time Altitude Azimuth Time Altitude Azimuth
Cosmos 2360 Rocket 2.7 20:02:18 10° NNW 20:07:53 52° NE 20:13:25 10° SE
Cosmos 1452 Rocket 4.3 20:06:28 10° SW 20:11:37 59° WNW 20:16:49 10° NNE
EP 1 4.2 20:10:16 10° NW 20:12:53 83° NE 20:15:34 10° SE
CZ-4B R/B 3.9 20:08:42 10° S 20:14:16 59° WSW 20:19:47 10° NNW
Cosmos 2233 Rocket 4.0 20:10:01 10° S 20:16:13 85° E 20:22:24 10° NNE
Cosmos 1486 Rocket 4.3 20:13:15 10° NNW 20:18:29 61° ENE 20:23:42 10° SE
Cosmos 1302 Rocket 4.3 20:13:46 10° SSW 20:18:56 76° WNW 20:24:10 10° NNE
Cosmos 1758 Rocket 3.6 20:16:03 10° N 20:20:29 83° E 20:24:56 10° SSE
Cosmos 2219 Rocket 2.9 20:15:08 10° NNW 20:20:34 44° NE 20:25:59 10° ESE
Okean-O 2.7 20:16:12 10° SSE 20:20:34 82° WSW 20:24:58 10° NNW
Cosmos 909 Rocket 4.0 20:15:58 10° SSW 20:22:12 69° SE 20:28:46 10° NE
CZ-2C R/B 3.5 20:21:17 10° ESE 20:23:32 22° ENE 20:25:47 10° NNE
DNEPR-1 R/B 4.4 20:23:06 10° NW 20:28:26 82° SW 20:34:57 10° SE
Nadezhda 4 Rocket 4.4 20:23:41 10° N 20:29:36 47° ENE 20:35:27 10° SE
Meteor 1-25 Rocket 4.3 20:24:11 10° N 20:29:52 70° ENE 20:35:26 10° SSE
USA 245 4.3 20:26:20 10° SSE 20:32:11 77° ENE 20:37:35 10° NNW
IRS-1C Rocket 4.3 20:27:20 10° SSE 20:32:31 60° ENE 20:37:43 10° N
Cosmos 1825 Rocket 4.4 20:29:00 10° N 20:33:03 37° ENE 20:36:52 11° SE
Cosmos 1805 3.3 20:30:35 10° N 20:33:44 44° ENE 20:36:34 12° SSE
NOSS 3-3 (C) 3.8 20:32:05 10° SW 20:37:25 76° SE 20:43:56 10° NE
Cosmos 220 Rocket 4.3 20:33:49 10° S 20:37:39 42° ESE 20:41:32 10° NE
Cosmos 2322 Rocket 2.3 20:34:48 10° NNW 20:40:30 84° ENE 20:45:49 12° SSE
RESURS DK-1 4.3 20:38:12 10° NNW 20:41:13 20° NE 20:44:14 10° E
Cosmos 1602 Rocket 3.5 20:40:07 10° N 20:44:28 84° E 20:48:44 10° SSE
USA 306 1.4 20:42:46 10° W 20:45:43 73° N 20:47:34 10° E
Cosmos 2082 Rocket 2.9 20:41:36 10° SW 20:47:16 60° NW 20:52:55 10° NNE
NOSS 3-4 (A) 3.9 20:41:28 10° NW 20:48:00 75° SW 20:55:06 13° SE
NOSS 3-4 (C) 3.9 20:42:05 10° NW 20:48:39 75° SW 20:55:45 13° SE
YAOGAN 11 4.2 20:46:47 10° NNE 20:51:15 81° WNW 20:55:42 10° SSW
Cosmos 1707 4.3 20:52:07 10° E 20:52:46 11° E 20:53:25 10° ENE
CZ-4B R/B 2.5 20:49:58 12° S 20:53:07 78° WSW 20:56:39 10° NNW
Cosmos 2151 3.5 20:50:39 10° NNW 20:54:41 56° W 20:58:41 10° S
Cosmos 1076 Rocket 4.0 20:53:01 10° N 20:57:09 45° ENE 21:00:20 16° SE
Cosmos 44 3.9 20:52:30 10° NW 20:57:55 63° NE 21:02:45 12° ESE
Cosmos 2098 Rocket 3.2 20:53:34 10° S 20:58:08 57° E 21:02:04 10° NNE
Cosmos 2237 Rocket 4.1 20:53:51 10° NNW 20:58:16 22° NNE 21:02:40 10° E
ATLAS 2AS CENTAUR R/B 4.3 20:52:54 10° WNW 20:59:13 37° N 21:05:28 10° NE
CZ-4C R/B 3.6 20:55:56 10° W 21:00:29 41° NNW 21:06:22 10° NE
Ariane Rocket 3.0 20:59:02 12° SSE 21:03:44 83° WSW 21:08:51 10° NNW
Cosmos 2278 4.3 21:02:01 10° NW 21:07:34 51° WSW 21:12:37 12° S
SL-16 R/B 3.2 21:06:15 10° NW 21:11:29 39° WSW 21:16:41 10° S
Meteor 1-5 Rocket 4.4 21:06:36 10° NNW 21:12:21 81° W 21:17:38 13° S
COSMOS 2428 3.7 21:07:03 10° NNW 21:12:26 40° NE 21:17:37 11° ESE
SPOT 3 Rocket 4.1 21:09:24 10° S 21:14:27 56° W 21:19:31 10° NNW
Cosmos 1763 Rocket 3.9 21:10:53 12° S 21:15:27 44° ESE 21:20:26 10° NE
USA 186 4.1 21:14:17 10° SW 21:16:03 15° W 21:17:49 10° NW
Cosmos 1898 Rocket 4.5 21:15:20 10° NNW 21:20:11 38° NE 21:24:23 13° ESE
USA 290 2.2 21:18:07 16° S 21:20:23 54° ESE 21:23:27 10° NE
Cosmos 1606 Rocket 3.5 21:17:15 13° S 21:21:00 72° E 21:25:18 10° NNE
Cosmos 990 Rocket 4.0 21:17:02 10° NNW 21:22:14 90° E 21:26:04 19° SSE
Cosmos 1933 4.2 21:21:14 10° SSW 21:24:54 45° WNW 21:28:36 10° N
Cosmos 1464 Rocket 4.0 21:18:54 10° S 21:25:03 84° E 21:31:17 10° NNE
ISS -3.7 21:22:46 10° W 21:26:04 59° S 21:28:15 19° ESE
Helios 1B rocket 3.4 21:24:22 17° ESE 21:26:23 28° ENE 21:29:26 10° N
Cosmos 1461 3.1 21:23:21 10° WSW 21:27:01 60° NW 21:30:40 10° NE
CZ-4B R/B 4.0 21:23:15 12° S 21:27:29 50° W 21:32:13 10° NNW
BREEZE-M DEB (TANK) 1.7 21:26:00 10° WSW 21:28:12 32° S 21:28:12 32° S
Okean 1 3.0 21:25:54 19° S 21:28:23 71° E 21:31:59 10° NNE
Cosmos 1726 Rocket 3.4 21:25:49 18° S 21:28:40 63° E 21:32:42 10° NNE
COSMOS 2406 3.9 21:25:45 10° SW 21:31:24 58° NW 21:37:06 10° NNE
Okean O Rocket 3.9 21:32:03 10° SW 21:35:01 18° W 21:37:59 10° NW
Cosmos 1536 3.1 21:31:29 10° N 21:35:03 46° ENE 21:36:59 24° SE
GRACE-FO 1 4.5 21:34:58 21° S 21:37:13 81° W 21:40:44 10° N
GRACE-FO 2 4.5 21:35:26 21° S 21:37:41 80° W 21:41:12 10° N
Cosmos-2242 3.3 21:37:47 23° SSE 21:40:02 48° E 21:44:01 10° NNE
Cosmos 1092 Rocket 4.0 21:34:42 10° N 21:40:54 73° ENE 21:45:21 20° SSE
Cosmos 2333 Rocket 3.7 21:37:02 10° NW 21:41:45 27° WSW 21:46:28 10° SSW
KORONAS-FOTON 4.4 21:43:53 26° SE 21:44:57 32° E 21:48:01 10° NNE
Cosmos 2297 Rocket 4.0 21:46:14 12° ESE 21:47:52 14° E 21:50:33 10° ENE
Cosmos 1833 4.1 21:44:31 10° SSW 21:50:09 72° ESE 21:55:46 10° NE
Cosmos 2360 Rocket 3.2 21:46:34 10° NW 21:51:44 37° WSW 21:55:44 16° SSW
CZ-2C R/B 4.0 21:52:45 14° SW 21:54:14 21° W 21:56:28 10° NW
Cosmos 1766 2.7 21:52:12 10° NNW 21:55:26 81° W 21:56:45 33° S
Cosmos 2322 3.8 21:50:43 10° NNW 21:56:27 75° ENE 22:00:18 21° SE
Cosmos 1842 3.7 21:56:49 28° ESE 21:57:28 31° E 22:00:18 10° NNE
Cosmos 1975 3.7 21:54:14 10° N 21:57:37 33° ENE 21:59:14 23° ESE
Cosmos 372 Rocket 3.9 21:57:14 10° NNW 22:02:24 89° E 22:05:24 25° SSE
Cosmos 2034 Rocket 4.1 21:58:36 14° SSW 22:04:16 79° WNW 22:10:38 10° N
Cosmos 2219 Rocket 2.9 21:59:12 10° NW 22:04:33 45° WSW 22:08:05 20° S
Cosmos 2221 3.6 22:03:18 23° SE 22:04:49 29° E 22:08:27 10° NNE
Cosmos 1271 Rocket 3.2 22:06:21 30° SE 22:07:09 35° E 22:10:16 10° NNE
Cosmos 540 Rocket 3.5 22:07:45 12° SSW 22:12:36 80° WNW 22:17:47 10° NNE
USA 306 3.4 22:10:40 10° W 22:11:19 16° W 22:11:19 16° W
Helios 1A 2.7 22:12:10 10° NNE 22:16:08 84° ESE 22:18:07 28° SSW
Cosmos 1953 Rocket 4.5 22:13:30 10° NNW 22:17:35 40° W 22:20:10 19° SSW
RESURS DK-1 2.2 22:15:04 10° NW 22:19:04 81° WSW 22:20:45 33° SSE
Aureole 1 Rocket 4.3 22:14:44 10° NNW 22:20:21 58° WSW 22:24:34 23° S
Cosmos 2279 Rocket 4.1 22:16:39 24° SSE 22:20:31 63° E 22:26:42 10° NNE
Cosmos 2322 Rocket 4.0 22:19:44 10° NW 22:23:52 21° W 22:27:37 11° SW
Cosmos 1707 2.7 22:23:33 30° SW 22:24:34 46° WNW 22:27:19 10° N
Cosmos 1634 Rocket 4.0 22:22:33 21° S 22:26:53 90° WNW 22:33:09 10° N
Cosmos 1937 Rocket 3.4 22:22:07 10° NNW 22:27:18 82° ENE 22:30:09 27° SSE
TSX-5 4.0 22:26:16 10° NW 22:29:15 40° WSW 22:29:55 35° SSW
SL-16 R/B 4.0 22:26:43 10° NNW 22:31:35 28° NE 22:36:25 10° E
Geosat 3.9 22:26:56 10° NNE 22:31:58 82° ESE 22:35:38 19° SSW
CZ-2C R/B 3.9 22:27:55 10° NNE 22:32:19 55° E 22:34:15 31° SSE
Cosmos 2058 Rocket 3.3 22:30:59 22° SSW 22:33:38 62° WNW 22:37:57 10° N
Cosmos 468 Rocket 4.0 22:30:13 20° SSW 22:34:00 90° SE 22:39:18 10° NNE
GP-B 4.1 22:30:21 10° NNE 22:34:22 34° E 22:36:11 24° SE
Meteor 2-9 Rocket 4.1 22:32:59 10° NNW 22:38:24 85° WSW 22:41:25 28° S
Cosmos 44 4.4 22:34:00 10° NW 22:38:50 34° WSW 22:41:01 24° SSW
CZ-2C R/B 3.6 22:39:09 17° ESE 22:42:43 38° ENE 22:47:30 10° N
Lacrosse 4 Rocket 3.2 22:42:44 16° ESE 22:42:44 16° ESE 22:45:11 10° ENE
Cosmos 2237 Rocket 2.4 22:37:40 10° NNW 22:43:22 69° NE 22:47:09 22° SE
Cosmos 2266 Rocket 4.0 22:40:51 10° N 22:46:55 73° ENE 22:50:26 26° SSE
USA 234 4.0 22:41:46 10° ENE 22:47:27 31° SE 22:49:36 25° SSE
Cosmos 1980 3.8 22:41:57 10° NNW 22:47:39 77° ENE 22:51:12 24° SE
SeaSat 1 4.0 22:43:46 10° ESE 22:48:06 32° NE 22:52:27 10° NNW
Cosmos 1470 2.8 22:45:17 10° NNW 22:48:30 48° W 22:49:19 38° SW
CZ-4C R/B 4.2 22:45:08 10° WNW 22:50:07 33° N 22:56:25 10° ENE
ATLAS 2AS CENTAUR R/B 4.0 22:45:19 10° NW 22:51:41 39° NNE 22:58:00 10° E
Intercosmos 24 4.4 22:48:20 10° N 22:52:10 46° ENE 22:53:30 30° SE
ARIANE 5 R/B 2.7 22:52:41 33° S 22:54:36 70° WSW 22:59:05 10° NNW
ALOS 2 2.6 22:54:46 34° S 22:56:37 79° WSW 23:01:03 10° NNW
COSMOS 2428 3.1 22:51:20 10° NW 22:56:51 51° WSW 22:59:34 28° S
Cosmos 2227 Rocket 3.8 22:55:49 17° SE 22:57:47 20° E 23:01:47 10° NE
Helios 1B rocket 3.4 22:58:18 24° SW 22:59:20 28° W 23:02:25 10° NW
Cosmos 1898 Rocket 4.1 22:57:21 10° NW 23:02:16 44° WSW 23:04:33 27° SSW
ISS -1.9 22:59:41 10° W 23:01:10 19° WSW 23:01:10 19° WSW
BlueWalker 3 4.1 23:05:21 12° E 23:05:21 12° E 23:05:42 10° E
Cosmos 2263 Rocket 4.1 23:03:56 12° ESE 23:05:59 15° E 23:08:59 10° ENE
CZ-2C R/B 3.8 23:01:00 10° NNE 23:06:34 47° E 23:09:26 27° SSE
Meteor 1-11 Rocket 3.7 23:01:36 10° NNW 23:07:17 78° W 23:10:10 30° S
Cosmos 1766 Rocket 3.9 23:04:01 10° N 23:08:15 56° ENE 23:10:08 30° SE
SAR-Lupe-2 3.4 23:10:57 50° SSW 23:11:37 66° WSW 23:14:56 10° NNW
Meteor 1-10 Rocket 4.3 23:11:29 28° S 23:14:47 85° E 23:20:46 10° NNE
Cosmos 1238 Rocket 3.5 23:14:04 32° SE 23:15:27 45° E 23:19:41 10° NNE
PSLV R/B 3.5 23:11:10 10° NNE 23:15:29 81° ESE 23:17:16 36° S
Cosmos 1655 Rocket 4.2 23:14:11 10° N 23:20:25 68° ENE 23:24:14 25° SSE
Cosmos 192 4.5 23:16:35 10° NNW 23:21:32 72° ENE 23:24:20 26° SE
Alouette 2 Rocket 3.6 23:22:26 10° NNW 23:26:10 72° ENE 23:28:18 30° SSE
NOSS 0 Rocket 4.5 23:22:17 10° NW 23:28:02 42° WSW 23:30:48 27° SSW
Meteor 2-10 Rocket 4.0 23:23:15 10° N 23:28:44 63° ENE 23:32:13 24° SSE
Meteor 1-27 Rocket 3.8 23:25:49 29° S 23:28:52 75° E 23:34:35 10° NNE
Cosmos 841 Rocket 3.8 23:27:23 22° SW 23:30:47 65° WNW 23:36:02 10° NNE
Cosmos 2297 Rocket 2.2 23:27:59 29° SSW 23:30:51 68° ESE 23:36:29 10° NE
Cosmos 1975 4.2 23:29:26 10° NW 23:32:26 24° W 23:33:29 21° WSW
CZ-4C R/B 4.4 23:38:04 10° NE 23:41:00 26° E 23:41:47 24° ESE
Cosmos 2221 3.6 23:39:35 21° WSW 23:41:45 35° WNW 23:45:39 10° N
Cosmos 158 Rocket 4.4 23:39:40 30° SSE 23:42:01 51° ESE 23:47:11 10° NNE
Cosmos 1812 Rocket 4.3 23:39:58 26° SW 23:42:08 47° WNW 23:46:26 10° N
ACS3 Solar Sail 2.7 23:37:10 10° NNE 23:42:39 36° E 23:46:10 20° SSE
MetOp-A 4.0 23:42:38 32° SSW 23:44:40 57° WSW 23:49:14 10° NNW
Landsat 5 3.9 23:43:11 10° NNE 23:47:08 46° E 23:48:28 33° SSE
